weather.gov     
National Weather Service

Terminal Aerodrome Forecast
NWS Homepage
This page is being discontinued on March 12, 2014.
The same data is available at this site. Please update your bookmarks.
Thank you, and we apologize for the inconvenience.
Please send an email to SR-SRH.Webmaster@noaa.gov with any concerns.


Current Version
Previous Version:    01  02  03  04  05  06  07  08  09  10  11  12  13  14  15  16  17  18  19  20  21  22  23  24  25  26  27  
[Printable]
214
FTUS42 KMLB 291700
TAFFPR
TAF
KFPR 291739Z 2918/3018 26010KT P6SM VCSH SCT035 BKN250
      TEMPO 2918/2919 2SM TSRA BKN025CB OVC080
     FM292100 27010KT P6SM SCT035 BKN120 BKN250
     FM300200 24007KT P6SM FEW040 SCT250
     FM301400 28006KT P6SM SCT025=


U.S. Dept. of Commerce
NOAA National Weather Service
1325 East West Highway
Silver Spring, MD 20910
E-mail: w-nws.webmaster@noaa.gov
Page last modified: May 16, 2007
NATIONAL WEATHER SERVICE: for Safety, for Work, for Fun - FOR LIFE